Indiana, PA

10:34 AM EDT on October 22, 2019 (GMT -0400)
Indiana County-Stewart

Weather History for KIDI - August, 2019

Change the Weather History Date:

Friday, August 23, 2019

  Actual Average Record
Temperature  
Mean Temperature 64 °F -  
Max Temperature 71 °F 79 °F 92 °F (1968)
Min Temperature 57 °F 57 °F 37 °F (1952)
Degree Days  
Heating Degree Days 1    
Growing Degree Days 14 (Base 50)    
Moisture  
Dew Point 58 °F    
Average Humidity 79    
Maximum Humidity 94    
Minimum Humidity 53    
Precipitation  
Precipitation 0.00 in - - ()
Sea Level Pressure  
Sea Level Pressure 30.13 in    
Wind  
Wind Speed 2 mph ()    
Max Wind Speed 9 mph    
Max Gust Speed 14 mph    
Visibility 10.0 miles    
Events      
Averages and records for this station are not official NWS values.
T = Trace of Precipitation, MM = Missing Value Source: Averaged Metar Reports

Daily Weather History Graph

Daily Weather History Graph

Search for Another Location

Airport or City:

Astronomy

Aug. 23, 2019 Rise Set
Actual Time 6:34 AM EDT 8:02 PM EDT
Civil Twilight 6:05 AM EDT 8:31 PM EDT
Nautical Twilight 5:31 AM EDT 9:06 PM EDT
Astronomical Twilight 4:54 AM EDT 9:42 PM EDT
Moon No Moon Rise 2:11 PM EDT (8/23)
Length of Visible Light 14h 25m
Length of Day
13h 28m
Waning Gibbous, 50% of the Moon is Illuminated
Aug 23
Waning Gibbous
Aug 30
New
Sep 5
First Quarter
Sep 14
Full
Sep 21
Last Quarter

Hourly Weather History & Observations

Time (EDT) Temp. Dew Point Humidity Pressure Visibility Wind Dir Wind Speed Gust Speed Precip Events Conditions
12:15 AM 64.4 °F 60.8 °F 88% 30.08 in 10.0 mi NNE 4.6 mph - N/A   Overcast
12:35 AM 64.4 °F 60.8 °F 88% 30.08 in 10.0 mi Calm Calm - N/A   Overcast
12:55 AM 64.4 °F 60.8 °F 88% 30.09 in 10.0 mi Calm Calm - N/A   Overcast
1:15 AM 64.4 °F 60.8 °F 88% 30.09 in 10.0 mi Calm Calm - N/A   Overcast
1:35 AM 64.4 °F 60.8 °F 88% 30.09 in 10.0 mi Calm Calm - N/A   Overcast
1:55 AM 64.4 °F 60.8 °F 88% 30.08 in 10.0 mi Variable 4.6 mph - N/A   Overcast
2:15 AM 64.4 °F 60.8 °F 88% 30.08 in 10.0 mi Calm Calm - N/A   Overcast
2:35 AM 64.4 °F 59.0 °F 83% 30.08 in 10.0 mi Calm Calm - N/A   Overcast
2:55 AM 64.4 °F 60.8 °F 88% 30.08 in 10.0 mi Calm Calm - N/A   Overcast
3:15 AM 64.4 °F 60.8 °F 88% 30.08 in 10.0 mi Calm Calm - N/A   Overcast
3:35 AM 64.4 °F 60.8 °F 88% 30.08 in 10.0 mi Calm Calm - N/A   Overcast
3:55 AM 64.4 °F 60.8 °F 88% 30.08 in 10.0 mi Calm Calm - N/A   Overcast
4:15 AM 62.6 °F 60.8 °F 94% 30.08 in 10.0 mi North 3.5 mph - N/A   Overcast
4:35 AM 62.6 °F 60.8 °F 94% 30.09 in 10.0 mi Calm Calm - N/A   Overcast
4:55 AM 62.6 °F 60.8 °F 94% 30.09 in 10.0 mi Calm Calm - N/A   Overcast
5:15 AM 62.6 °F 59.0 °F 88% 30.10 in 10.0 mi Calm Calm - N/A   Overcast
5:35 AM 62.6 °F 59.0 °F 88% 30.09 in 10.0 mi Calm Calm - N/A   Overcast
5:55 AM 62.6 °F 59.0 °F 88% 30.10 in 10.0 mi Calm Calm - N/A   Overcast
6:15 AM 60.8 °F 59.0 °F 94% 30.11 in 10.0 mi North 3.5 mph - N/A   Overcast
6:35 AM 60.8 °F 59.0 °F 94% 30.11 in 10.0 mi Calm Calm - N/A   Overcast
6:55 AM 60.8 °F 57.2 °F 88% 30.12 in 10.0 mi Calm Calm - N/A   Partly Cloudy
7:15 AM 60.8 °F 59.0 °F 94% 30.12 in 10.0 mi Calm Calm - N/A   Clear
7:35 AM 60.8 °F 57.2 °F 88% 30.13 in 10.0 mi Calm Calm - N/A   Clear
7:55 AM 60.8 °F 57.2 °F 88% 30.12 in 10.0 mi Calm Calm - N/A   Clear
8:15 AM 60.8 °F 57.2 °F 88% 30.13 in 10.0 mi Calm Calm - N/A   Scattered Clouds
8:55 AM 60.8 °F 57.2 °F 88% 30.13 in 10.0 mi Calm Calm - N/A   Overcast
9:15 AM 60.8 °F 57.2 °F 88% 30.13 in 10.0 mi Calm Calm - N/A   Scattered Clouds
9:35 AM 62.6 °F 57.2 °F 82% 30.14 in 10.0 mi Calm Calm - N/A   Clear
9:55 AM 62.6 °F 59.0 °F 88% 30.13 in 10.0 mi Variable 3.5 mph - N/A   Clear
10:15 AM 64.4 °F 59.0 °F 83% 30.14 in 10.0 mi NW 4.6 mph - N/A   Clear
10:35 AM 64.4 °F 59.0 °F 83% 30.14 in 10.0 mi North 4.6 mph - N/A   Clear
10:55 AM 64.4 °F 59.0 °F 83% 30.14 in 10.0 mi Calm Calm - N/A   Clear
11:15 AM 64.4 °F 59.0 °F 83% 30.15 in 10.0 mi NNW 6.9 mph - N/A   Partly Cloudy
11:35 AM 66.2 °F 57.2 °F 73% 30.14 in 10.0 mi Variable 4.6 mph - N/A   Partly Cloudy
11:55 AM 66.2 °F 57.2 °F 73% 30.14 in 10.0 mi NNW 4.6 mph - N/A   Clear
12:15 PM 66.2 °F 57.2 °F 73% 30.14 in 10.0 mi Variable 5.8 mph - N/A   Clear
12:35 PM 66.2 °F 57.2 °F 73% 30.15 in 10.0 mi Calm Calm - N/A   Partly Cloudy
12:55 PM 66.2 °F 57.2 °F 73% 30.14 in 10.0 mi North 4.6 mph - N/A   Partly Cloudy
1:15 PM 66.2 °F 57.2 °F 73% 30.14 in 10.0 mi Variable 4.6 mph - N/A   Scattered Clouds
1:35 PM 66.2 °F 57.2 °F 73% 30.14 in 10.0 mi Variable 3.5 mph - N/A   Scattered Clouds
1:55 PM 68.0 °F 57.2 °F 68% 30.13 in 10.0 mi NW 6.9 mph - N/A   Scattered Clouds
2:15 PM 69.8 °F 57.2 °F 64% 30.14 in 10.0 mi North 8.1 mph - N/A   Scattered Clouds
2:35 PM 69.8 °F 55.4 °F 60% 30.13 in 10.0 mi Variable 5.8 mph - N/A   Mostly Cloudy
2:55 PM 69.8 °F 55.4 °F 60% 30.13 in 10.0 mi Variable 4.6 mph 11.5 mph N/A   Scattered Clouds
3:15 PM 71.6 °F 57.2 °F 60% 30.13 in 10.0 mi Variable 4.6 mph 11.5 mph N/A   Mostly Cloudy
3:35 PM 71.6 °F 55.4 °F 57% 30.13 in 10.0 mi Variable 5.8 mph - N/A   Mostly Cloudy
3:55 PM 69.8 °F 55.4 °F 60% 30.13 in 10.0 mi North 5.8 mph 13.8 mph N/A   Mostly Cloudy
4:15 PM 69.8 °F 55.4 °F 60% 30.13 in 10.0 mi Variable 5.8 mph 13.8 mph N/A   Scattered Clouds
4:35 PM 69.8 °F 55.4 °F 60% 30.13 in 10.0 mi Variable 4.6 mph 11.5 mph N/A   Mostly Cloudy
4:55 PM 71.6 °F 55.4 °F 57% 30.13 in 10.0 mi North 8.1 mph - N/A   Mostly Cloudy
5:15 PM 71.6 °F 55.4 °F 57% 30.13 in 10.0 mi NNE 9.2 mph - N/A   Overcast
5:35 PM 69.8 °F 55.4 °F 60% 30.14 in 10.0 mi NNE 8.1 mph - N/A   Overcast
5:55 PM 71.6 °F 55.4 °F 57% 30.13 in 10.0 mi ENE 4.6 mph - N/A   Partly Cloudy
6:15 PM 69.8 °F 53.6 °F 56% 30.13 in 10.0 mi Variable 5.8 mph - N/A   Clear
6:35 PM 71.6 °F 53.6 °F 53% 30.14 in 10.0 mi NNE 4.6 mph - N/A   Clear
6:55 PM 69.8 °F 53.6 °F 56% 30.13 in 10.0 mi NE 4.6 mph - N/A   Clear
7:15 PM 69.8 °F 53.6 °F 56% 30.14 in 10.0 mi Calm Calm - N/A   Clear
7:35 PM 69.8 °F 53.6 °F 56% 30.14 in 10.0 mi Calm Calm - N/A   Clear
7:55 PM 68.0 °F 57.2 °F 68% 30.14 in 10.0 mi Calm Calm - N/A   Clear
8:35 PM 64.4 °F 57.2 °F 77% 30.15 in 10.0 mi Calm Calm - N/A   Clear
8:55 PM 62.6 °F 57.2 °F 82% 30.16 in 10.0 mi Calm Calm - N/A   Partly Cloudy
9:15 PM 60.8 °F 57.2 °F 88% 30.16 in 10.0 mi Calm Calm - N/A   Mostly Cloudy
9:35 PM 60.8 °F 57.2 °F 88% 30.17 in 10.0 mi Calm Calm - N/A   Scattered Clouds
9:55 PM 59.0 °F 57.2 °F 94% 30.18 in 10.0 mi Calm Calm - N/A   Partly Cloudy
10:15 PM 59.0 °F 57.2 °F 94% 30.18 in 10.0 mi Calm Calm - N/A   Partly Cloudy
10:35 PM 59.0 °F 55.4 °F 88% 30.19 in 10.0 mi Calm Calm - N/A   Clear
10:55 PM 59.0 °F 57.2 °F 94% 30.20 in 10.0 mi Calm Calm - N/A   Clear
11:15 PM 59.0 °F 57.2 °F 94% 30.20 in 10.0 mi Calm Calm - N/A   Clear
11:35 PM 57.2 °F 55.4 °F 94% 30.21 in 10.0 mi ESE 3.5 mph - N/A   Clear
11:55 PM 57.2 °F 55.4 °F 94% 30.21 in 10.0 mi Calm Calm - N/A   Partly Cloudy